This is the latest recevied weather packets stored in our database for station/object YO8PIC-4. If no packets are shown the sender has not sent any weather packets the latest 10 day(s).
| Time | Temp. | Humidity | Pressure | Rain* | Wind** | Luminosity | Snow |
|---|---|---|---|---|---|---|---|
| 1777937587 | 22.78° C | 57% | 1012.1 hPa | - | - | - | - |
| 1777936987 | 22.78° C | 57% | 1012.1 hPa | - | - | - | - |
| 1777936387 | 22.78° C | 57% | 1012.2 hPa | - | - | - | - |
| 1777935787 | 22.78° C | 57% | 1012.2 hPa | - | - | - | - |
| 1777935187 | 22.78° C | 57% | 1012.3 hPa | - | - | - | - |
| 1777934586 | 22.78° C | 57% | 1012.3 hPa | - | - | - | - |
| 1777933986 | 22.22° C | 57% | 1011.9 hPa | - | - | - | - |
| 1777933382 | 22.78° C | 57% | 1012.2 hPa | - | - | - | - |
| 1777932782 | 22.78° C | 57% | 1012.2 hPa | - | - | - | - |
| 1777932182 | 22.78° C | 57% | 1012.2 hPa | - | - | - | - |
| 1777931582 | 22.78° C | 57% | 1012.2 hPa | - | - | - | - |
| 1777930982 | 22.78° C | 57% | 1012.2 hPa | - | - | - | - |
| 1777930382 | 22.78° C | 56% | 1012.3 hPa | - | - | - | - |
| 1777929782 | 22.78° C | 56% | 1012.2 hPa | - | - | - | - |
| 1777929181 | 22.78° C | 56% | 1012.1 hPa | - | - | - | - |
| 1777928581 | 22.78° C | 56% | 1012.1 hPa | - | - | - | - |
| 1777927981 | 22.78° C | 57% | 1012.1 hPa | - | - | - | - |
| 1777927381 | 22.78° C | 56% | 1012.1 hPa | - | - | - | - |
| 1777926781 | 22.22° C | 55% | 1012.1 hPa | - | - | - | - |
| 1777926181 | 22.78° C | 52% | 1012.1 hPa | - | - | - | - |
| 1777925581 | 22.22° C | 50% | 1012.1 hPa | - | - | - | - |
| 1777924981 | 22.22° C | 51% | 1011.7 hPa | - | - | - | - |
| 1777924378 | 22.22° C | 50% | 1011.6 hPa | - | - | - | - |
| 1777923776 | 22.22° C | 58% | 1011.5 hPa | - | - | - | - |
| 1777923170 | 22.22° C | 57% | 1011.5 hPa | - | - | - | - |
* Rain since midnight (hover to see other rain measurements)
** Current wind speed in m/s (hover to see current wind gust speed)